Location: Poughquag
(41.6090°N, 73.6820°W)
Time: 10:57:03
(UTC-04:00)

Tiros 1 - Pass Details

Date: 05 June 2020
Orbit: 630 x 664 km, 48.4° (Epoch: 06 July)

Event Time Altitude Azimuth Distance (km) Brightness Sun altitude
Rises 10:40:45 0° 219° (SW) 2,978 10.5 56.4°
Reaches altitude 10° 10:43:10 10° 213° (SSW) 2,066 9.8 56.9°
Maximum altitude 10:47:41 44° 142° (SE) 909 9.6 57.6°
Drops below altitude 10° 10:52:12 10° 71° (ENE) 2,058 10.2 58.4°
Sets 10:54:37 0° 65° (ENE) 2,966 10.8 58.8°
